Precipitable_Water
0.65 0.64 0.63 0.65 0.68 0.68 0.67 0.66 0.64 0.63 0.62 0.62 0.60 0.59 0.57 0.56 0.54 0.53 0.52 0.52 0.52 0.51 0.50 0.48 0.48 0.48 0.45 0.46 0.45 0.43 0.41 0.32 0.28 0.26 0.25 0.27 0.25 0.29 0.29 0.27 0.30 0.36 0.37 0.41 0.37 0.33 0.32 0.36 0.34 0.35 0.32 0.27 0.25 0.20 0.26 0.26 0.27 0.24 0.16 0.14 0.13 0.12 0.10 0.13 0.14 0.20 0.21 0.19 0.21 0.23 0.27 0.31 0.46 0.51 0.56 0.68 0.62 0.71 0.61 0.65 0.69 0.83 0.84 0.93 0.98 1.10 1.15 1.21
0.66 0.65 0.65 0.64 0.66 0.65 0.65 0.66 0.65 0.63 0.62 0.61 0.60 0.60 0.59 0.57 0.55 0.54 0.54 0.53 0.52 0.52 0.50 0.49 0.46 0.46 0.45 0.43 0.43 0.42 0.36 0.31 0.23 0.23 0.22 0.26 0.24 0.27 0.29 0.28 0.29 0.34 0.39 0.37 0.32 0.31 0.30 0.30 0.32 0.30 0.28 0.24 0.26 0.23 0.24 0.26 0.27 0.20 0.17 0.16 0.15 0.12 0.14 0.17 0.21 0.24 0.21 0.20 0.22 0.24 0.30 0.32 0.52 0.61 0.50 0.58 0.45 0.53 0.51 0.61 0.67 0.70 0.82 0.93 1.02 1.08 1.08 1.13
0.67 0.68 0.68 0.66 0.66 0.66 0.66 0.66 0.66 0.65 0.62 0.62 0.61 0.61 0.58 0.56 0.56 0.56 0.54 0.54 0.53 0.52 0.50 0.49 0.47 0.45 0.43 0.43 0.40 0.39 0.34 0.23 0.23 0.18 0.23 0.28 0.30 0.28 0.27 0.29 0.29 0.34 0.32 0.33 0.34 0.32 0.29 0.29 0.30 0.28 0.25 0.24 0.20 0.24 0.20 0.28 0.22 0.22 0.21 0.16 0.13 0.17 0.18 0.15 0.23 0.23 0.24 0.23 0.23 0.24 0.29 0.32 0.47 0.58 0.54 0.56 0.50 0.51 0.47 0.52 0.60 0.67 0.69 0.82 0.92 1.01 1.04 1.07
0.66 0.68 0.68 0.66 0.66 0.65 0.64 0.64 0.64 0.66 0.67 0.64 0.62 0.62 0.60 0.58 0.57 0.56 0.55 0.54 0.54 0.53 0.50 0.48 0.47 0.46 0.43 0.40 0.40 0.36 0.28 0.23 0.16 0.19 0.33 0.36 0.34 0.32 0.28 0.28 0.29 0.31 0.32 0.33 0.33 0.32 0.32 0.34 0.31 0.28 0.24 0.22 0.23 0.25 0.17 0.29 0.17 0.24 0.18 0.14 0.16 0.20 0.13 0.18 0.23 0.25 0.25 0.25 0.24 0.25 0.29 0.24 0.31 0.36 0.49 0.55 0.47 0.50 0.53 0.60 0.61 0.71 0.72 0.77 0.86 0.94 0.98 0.99
0.66 0.67 0.67 0.66 0.66 0.64 0.63 0.63 0.63 0.63 0.67 0.66 0.63 0.61 0.61 0.59 0.59 0.58 0.56 0.54 0.55 0.54 0.51 0.48 0.47 0.46 0.43 0.41 0.35 0.35 0.27 0.13 0.15 0.25 0.35 0.34 0.38 0.32 0.32 0.31 0.28 0.28 0.30 0.29 0.30 0.33 0.33 0.31 0.29 0.27 0.23 0.20 0.23 0.21 0.18 0.27 0.21 0.30 0.17 0.16 0.20 0.17 0.13 0.23 0.24 0.27 0.26 0.26 0.26 0.25 0.22 0.21 0.29 0.32 0.37 0.53 0.41 0.40 0.57 0.79 0.79 0.84 0.78 0.77 0.80 0.88 0.93 0.91
0.67 0.66 0.67 0.67 0.65 0.64 0.64 0.62 0.59 0.62 0.64 0.66 0.65 0.62 0.61 0.61 0.59 0.59 0.57 0.56 0.55 0.54 0.51 0.50 0.48 0.45 0.44 0.40 0.34 0.30 0.20 0.08 0.21 0.33 0.38 0.32 0.35 0.33 0.32 0.32 0.31 0.28 0.28 0.25 0.25 0.28 0.29 0.28 0.26 0.23 0.20 0.21 0.21 0.17 0.18 0.23 0.24 0.17 0.19 0.18 0.19 0.19 0.18 0.27 0.26 0.26 0.27 0.25 0.24 0.21 0.22 0.23 0.23 0.24 0.36 0.57 0.61 0.67 0.74 0.75 0.80 0.81 0.82 0.84 0.86 0.85 0.82 0.87
0.66 0.67 0.66 0.66 0.64 0.62 0.61 0.61 0.62 0.64 0.63 0.63 0.65 0.65 0.62 0.60 0.61 0.59 0.58 0.57 0.55 0.55 0.52 0.50 0.49 0.46 0.42 0.37 0.34 0.24 0.18 0.14 0.23 0.38 0.51 0.36 0.31 0.35 0.31 0.32 0.33 0.30 0.26 0.21 0.24 0.24 0.26 0.25 0.23 0.20 0.18 0.19 0.21 0.18 0.21 0.22 0.23 0.17 0.18 0.22 0.18 0.19 0.20 0.24 0.26 0.28 0.27 0.25 0.23 0.23 0.23 0.22 0.22 0.23 0.40 0.47 0.57 0.62 0.71 0.80 0.82 0.79 0.80 0.81 0.75 0.80 0.83 0.87
0.65 0.65 0.66 0.65 0.64 0.63 0.63 0.64 0.64 0.65 0.64 0.63 0.62 0.63 0.64 0.61 0.62 0.61 0.59 0.57 0.56 0.55 0.53 0.50 0.50 0.46 0.43 0.33 0.24 0.21 0.16 0.14 0.17 0.26 0.37 0.38 0.41 0.36 0.35 0.34 0.30 0.28 0.23 0.21 0.21 0.22 0.24 0.23 0.20 0.20 0.17 0.16 0.20 0.18 0.25 0.20 0.21 0.16 0.16 0.20 0.19 0.19 0.23 0.25 0.26 0.27 0.26 0.25 0.25 0.24 0.21 0.21 0.22 0.22 0.27 0.38 0.51 0.55 0.63 0.74 0.74 0.74 0.73 0.75 0.75 0.78 0.85 0.89
0.65 0.65 0.64 0.64 0.64 0.63 0.65 0.64 0.62 0.62 0.63 0.64 0.64 0.64 0.62 0.63 0.63 0.62 0.58 0.58 0.56 0.56 0.54 0.53 0.49 0.47 0.45 0.34 0.22 0.17 0.14 0.17 0.22 0.31 0.39 0.38 0.46 0.44 0.38 0.30 0.31 0.24 0.23 0.23 0.22 0.22 0.22 0.21 0.19 0.20 0.16 0.16 0.21 0.18 0.26 0.18 0.17 0.17 0.16 0.17 0.18 0.19 0.23 0.25 0.26 0.27 0.27 0.26 0.25 0.22 0.21 0.22 0.23 0.24 0.26 0.33 0.49 0.54 0.69 0.73 0.70 0.70 0.70 0.70 0.74 0.81 0.85 0.90
0.64 0.64 0.64 0.63 0.63 0.63 0.61 0.62 0.61 0.62 0.64 0.63 0.62 0.62 0.63 0.62 0.62 0.62 0.60 0.58 0.57 0.57 0.55 0.53 0.51 0.45 0.39 0.31 0.24 0.15 0.21 0.24 0.37 0.43 0.42 0.45 0.48 0.47 0.39 0.34 0.28 0.27 0.24 0.22 0.22 0.22 0.19 0.20 0.18 0.21 0.22 0.18 0.23 0.18 0.25 0.18 0.21 0.24 0.17 0.19 0.19 0.20 0.23 0.26 0.25 0.26 0.26 0.25 0.25 0.22 0.21 0.21 0.23 0.23 0.22 0.31 0.49 0.57 0.64 0.70 0.71 0.69 0.67 0.70 0.74 0.81 0.89 0.92
0.64 0.64 0.63 0.63 0.62 0.61 0.60 0.61 0.60 0.61 0.65 0.66 0.64 0.62 0.62 0.60 0.61 0.60 0.59 0.58 0.58 0.58 0.56 0.54 0.53 0.44 0.36 0.32 0.21 0.15 0.23 0.30 0.32 0.43 0.46 0.45 0.45 0.41 0.37 0.38 0.32 0.29 0.26 0.23 0.21 0.21 0.20 0.20 0.21 0.24 0.18 0.16 0.19 0.19 0.22 0.20 0.22 0.23 0.21 0.19 0.19 0.22 0.25 0.26 0.26 0.25 0.26 0.24 0.24 0.22 0.21 0.22 0.22 0.22 0.30 0.32 0.51 0.59 0.61 0.68 0.68 0.68 0.68 0.68 0.72 0.80 0.89 0.96
0.63 0.63 0.63 0.63 0.61 0.60 0.60 0.59 0.60 0.62 0.63 0.65 0.64 0.62 0.61 0.60 0.60 0.61 0.59 0.59 0.57 0.58 0.55 0.55 0.54 0.49 0.38 0.29 0.22 0.17 0.34 0.41 0.40 0.42 0.47 0.46 0.40 0.38 0.38 0.42 0.38 0.33 0.29 0.23 0.21 0.22 0.23 0.24 0.23 0.19 0.13 0.23 0.16 0.24 0.21 0.23 0.22 0.22 0.19 0.16 0.17 0.20 0.20 0.23 0.23 0.24 0.25 0.24 0.24 0.23 0.21 0.20 0.20 0.20 0.30 0.47 0.49 0.59 0.63 0.65 0.67 0.68 0.67 0.70 0.72 0.80 0.88 0.96
0.63 0.63 0.63 0.62 0.60 0.59 0.58 0.58 0.62 0.63 0.61 0.62 0.63 0.61 0.59 0.58 0.60 0.61 0.60 0.59 0.59 0.57 0.56 0.55 0.48 0.45 0.38 0.24 0.22 0.25 0.24 0.35 0.32 0.33 0.36 0.39 0.37 0.41 0.41 0.40 0.42 0.39 0.34 0.27 0.22 0.25 0.27 0.24 0.20 0.16 0.27 0.21 0.19 0.16 0.23 0.23 0.20 0.20 0.20 0.18 0.19 0.17 0.17 0.21 0.23 0.24 0.24 0.24 0.23 0.22 0.16 0.18 0.20 0.22 0.30 0.45 0.49 0.55 0.63 0.63 0.64 0.66 0.68 0.69 0.71 0.76 0.84 0.96
0.63 0.63 0.62 0.61 0.59 0.58 0.58 0.59 0.60 0.63 0.62 0.61 0.60 0.59 0.58 0.58 0.59 0.60 0.60 0.59 0.59 0.59 0.58 0.55 0.52 0.47 0.38 0.23 0.25 0.26 0.27 0.25 0.23 0.22 0.24 0.32 0.30 0.33 0.37 0.41 0.42 0.42 0.39 0.35 0.32 0.31 0.25 0.26 0.22 0.19 0.31 0.24 0.23 0.25 0.21 0.22 0.23 0.15 0.16 0.17 0.16 0.14 0.15 0.20 0.21 0.22 0.22 0.24 0.22 0.22 0.17 0.19 0.20 0.22 0.31 0.43 0.46 0.48 0.56 0.61 0.61 0.64 0.66 0.69 0.70 0.71 0.78 0.89
0.64 0.64 0.63 0.62 0.60 0.58 0.58 0.61 0.61 0.61 0.62 0.61 0.59 0.58 0.57 0.57 0.57 0.58 0.59 0.59 0.58 0.60 0.56 0.59 0.54 0.42 0.29 0.25 0.32 0.30 0.31 0.31 0.23 0.20 0.20 0.23 0.25 0.29 0.37 0.38 0.38 0.39 0.35 0.33 0.31 0.29 0.28 0.27 0.24 0.22 0.20 0.30 0.33 0.19 0.19 0.19 0.18 0.17 0.15 0.12 0.14 0.16 0.16 0.19 0.21 0.22 0.20 0.21 0.22 0.21 0.18 0.20 0.21 0.21 0.30 0.43 0.43 0.48 0.50 0.59 0.61 0.66 0.65 0.70 0.70 0.70 0.75 0.84
0.63 0.63 0.64 0.63 0.61 0.59 0.57 0.61 0.62 0.60 0.59 0.60 0.59 0.57 0.56 0.55 0.55 0.56 0.58 0.57 0.60 0.56 0.57 0.49 0.45 0.39 0.31 0.22 0.25 0.39 0.34 0.24 0.21 0.22 0.22 0.22 0.24 0.25 0.41 0.37 0.41 0.38 0.33 0.31 0.33 0.32 0.29 0.28 0.22 0.22 0.25 0.26 0.22 0.18 0.16 0.17 0.17 0.18 0.15 0.12 0.12 0.15 0.17 0.17 0.19 0.22 0.22 0.20 0.21 0.20 0.19 0.20 0.20 0.23 0.35 0.45 0.45 0.42 0.59 0.58 0.59 0.68 0.68 0.72 0.70 0.72 0.76 0.81
0.63 0.63 0.64 0.64 0.62 0.59 0.58 0.59 0.59 0.58 0.58 0.56 0.56 0.54 0.53 0.53 0.54 0.55 0.56 0.57 0.53 0.55 0.57 0.38 0.47 0.47 0.23 0.34 0.36 0.24 0.22 0.25 0.30 0.25 0.25 0.22 0.24 0.30 0.39 0.40 0.36 0.38 0.39 0.35 0.31 0.29 0.27 0.22 0.27 0.25 0.28 0.23 0.22 0.19 0.16 0.14 0.14 0.14 0.14 0.16 0.16 0.11 0.16 0.15 0.18 0.21 0.22 0.20 0.18 0.21 0.20 0.20 0.22 0.22 0.32 0.42 0.43 0.37 0.44 0.63 0.62 0.69 0.70 0.75 0.74 0.76 0.77 0.80
0.62 0.63 0.63 0.62 0.61 0.60 0.60 0.60 0.59 0.57 0.55 0.54 0.53 0.50 0.49 0.54 0.54 0.56 0.52 0.54 0.56 0.51 0.53 0.57 0.44 0.40 0.27 0.29 0.22 0.26 0.29 0.29 0.29 0.30 0.27 0.26 0.23 0.33 0.38 0.37 0.41 0.41 0.38 0.31 0.28 0.23 0.23 0.21 0.25 0.17 0.21 0.23 0.21 0.19 0.16 0.12 0.14 0.14 0.13 0.16 0.17 0.13 0.16 0.15 0.15 0.19 0.21 0.20 0.19 0.20 0.20 0.20 0.21 0.23 0.32 0.36 0.41 0.40 0.41 0.55 0.60 0.67 0.69 0.72 0.75 0.78 0.77 0.83
0.61 0.60 0.59 0.59 0.60 0.60 0.60 0.60 0.59 0.57 0.54 0.52 0.51 0.53 0.54 0.56 0.55 0.51 0.44 0.46 0.41 0.38 0.29 0.32 0.33 0.20 0.18 0.28 0.27 0.28 0.30 0.32 0.32 0.31 0.27 0.25 0.25 0.32 0.41 0.43 0.41 0.37 0.30 0.26 0.23 0.23 0.21 0.22 0.20 0.18 0.15 0.18 0.23 0.21 0.16 0.17 0.18 0.17 0.14 0.16 0.17 0.12 0.14 0.15 0.18 0.21 0.20 0.19 0.18 0.19 0.19 0.19 0.20 0.25 0.32 0.42 0.42 0.43 0.47 0.65 0.70 0.67 0.70 0.72 0.74 0.76 0.78 0.83
0.62 0.62 0.61 0.61 0.62 0.62 0.61 0.60 0.59 0.56 0.57 0.50 0.49 0.47 0.48 0.36 0.38 0.33 0.41 0.42 0.32 0.28 0.28 0.32 0.30 0.25 0.26 0.31 0.32 0.33 0.32 0.34 0.28 0.29 0.33 0.28 0.25 0.32 0.38 0.39 0.38 0.36 0.33 0.24 0.25 0.22 0.20 0.16 0.14 0.16 0.18 0.18 0.21 0.20 0.19 0.22 0.22 0.20 0.16 0.15 0.15 0.12 0.14 0.17 0.19 0.21 0.23 0.19 0.19 0.20 0.20 0.20 0.23 0.23 0.27 0.39 0.44 0.40 0.45 0.47 0.52 0.60 0.66 0.71 0.75 0.74 0.80 0.84
0.62 0.61 0.61 0.61 0.62 0.62 0.61 0.60 0.58 0.56 0.55 0.51 0.46 0.38 0.28 0.30 0.25 0.24 0.30 0.30 0.32 0.32 0.32 0.32 0.31 0.26 0.24 0.32 0.33 0.33 0.26 0.27 0.30 0.33 0.32 0.31 0.28 0.30 0.32 0.37 0.34 0.30 0.31 0.30 0.25 0.26 0.20 0.15 0.15 0.17 0.20 0.20 0.20 0.23 0.24 0.24 0.21 0.18 0.16 0.14 0.14 0.13 0.14 0.17 0.17 0.20 0.22 0.21 0.18 0.20 0.20 0.20 0.24 0.27 0.26 0.31 0.37 0.38 0.43 0.46 0.50 0.60 0.67 0.70 0.73 0.76 0.83 0.84
0.60 0.59 0.59 0.61 0.62 0.61 0.61 0.59 0.56 0.56 0.53 0.48 0.42 0.32 0.33 0.37 0.44 0.50 0.40 0.24 0.30 0.29 0.28 0.28 0.33 0.29 0.29 0.30 0.32 0.34 0.29 0.24 0.24 0.29 0.38 0.29 0.27 0.27 0.34 0.32 0.30 0.26 0.31 0.31 0.28 0.23 0.17 0.14 0.16 0.16 0.20 0.22 0.23 0.24 0.27 0.22 0.18 0.18 0.16 0.15 0.15 0.14 0.17 0.18 0.19 0.21 0.22 0.21 0.21 0.21 0.19 0.24 0.26 0.28 0.32 0.36 0.43 0.53 0.54 0.60 0.62 0.65 0.67 0.68 0.75 0.77 0.82 0.86
0.58 0.56 0.57 0.59 0.60 0.61 0.61 0.59 0.56 0.55 0.50 0.43 0.35 0.34 0.34 0.44 0.48 0.51 0.44 0.34 0.26 0.34 0.32 0.27 0.24 0.23 0.24 0.27 0.29 0.31 0.24 0.21 0.21 0.26 0.33 0.29 0.26 0.29 0.35 0.29 0.28 0.27 0.29 0.27 0.22 0.20 0.16 0.16 0.18 0.18 0.20 0.25 0.26 0.22 0.21 0.20 0.19 0.17 0.17 0.15 0.14 0.15 0.16 0.15 0.18 0.20 0.22 0.21 0.23 0.20 0.18 0.27 0.27 0.32 0.34 0.38 0.45 0.45 0.49 0.52 0.59 0.67 0.68 0.73 0.76 0.78 0.77 0.84
0.57 0.54 0.54 0.56 0.59 0.59 0.60 0.57 0.55 0.49 0.43 0.40 0.36 0.35 0.44 0.50 0.51 0.50 0.38 0.24 0.23 0.31 0.29 0.28 0.27 0.24 0.23 0.22 0.28 0.24 0.20 0.21 0.22 0.25 0.37 0.29 0.24 0.32 0.34 0.29 0.27 0.26 0.24 0.24 0.24 0.21 0.18 0.19 0.20 0.21 0.25 0.24 0.21 0.19 0.19 0.19 0.18 0.19 0.18 0.17 0.15 0.16 0.16 0.17 0.17 0.20 0.23 0.22 0.26 0.21 0.23 0.24 0.25 0.27 0.30 0.37 0.44 0.46 0.45 0.54 0.56 0.61 0.67 0.77 0.82 0.81 0.82 0.84
0.57 0.53 0.52 0.54 0.57 0.60 0.58 0.55 0.43 0.40 0.43 0.41 0.36 0.43 0.48 0.52 0.54 0.51 0.36 0.28 0.25 0.21 0.32 0.30 0.31 0.29 0.29 0.35 0.34 0.22 0.20 0.20 0.23 0.26 0.35 0.30 0.25 0.29 0.31 0.34 0.30 0.24 0.24 0.23 0.23 0.21 0.21 0.23 0.25 0.23 0.19 0.17 0.19 0.18 0.18 0.19 0.17 0.18 0.20 0.19 0.18 0.20 0.16 0.21 0.22 0.19 0.18 0.19 0.22 0.20 0.17 0.19 0.26 0.30 0.34 0.36 0.41 0.45 0.52 0.55 0.56 0.58 0.62 0.69 0.70 0.78 0.85 0.92
0.56 0.53 0.52 0.53 0.55 0.57 0.58 0.40 0.39 0.43 0.38 0.32 0.40 0.47 0.54 0.55 0.54 0.53 0.39 0.23 0.15 0.26 0.27 0.18 0.30 0.22 0.34 0.28 0.27 0.22 0.24 0.17 0.21 0.25 0.35 0.32 0.32 0.28 0.31 0.31 0.30 0.25 0.24 0.23 0.20 0.21 0.21 0.26 0.25 0.19 0.17 0.19 0.21 0.19 0.19 0.19 0.17 0.17 0.17 0.21 0.23 0.20 0.19 0.19 0.19 0.17 0.16 0.16 0.20 0.24 0.16 0.18 0.28 0.26 0.32 0.36 0.43 0.44 0.52 0.55 0.56 0.59 0.63 0.65 0.70 0.79 0.84 0.90
0.56 0.52 0.52 0.54 0.56 0.59 0.42 0.33 0.48 0.45 0.30 0.32 0.45 0.56 0.53 0.53 0.60 0.55 0.28 0.19 0.14 0.25 0.18 0.29 0.22 0.29 0.28 0.25 0.23 0.24 0.13 0.13 0.21 0.23 0.30 0.34 0.28 0.34 0.30 0.30 0.31 0.32 0.30 0.25 0.20 0.18 0.22 0.27 0.22 0.20 0.18 0.19 0.20 0.18 0.20 0.19 0.19 0.18 0.22 0.19 0.21 0.19 0.19 0.19 0.18 0.17 0.19 0.27 0.28 0.20 0.18 0.19 0.24 0.29 0.34 0.37 0.42 0.43 0.46 0.49 0.53 0.55 0.60 0.66 0.71 0.78 0.84 0.90
0.56 0.52 0.52 0.54 0.55 0.55 0.45 0.46 0.42 0.35 0.36 0.49 0.52 0.55 0.55 0.54 0.59 0.56 0.28 0.14 0.10 0.27 0.21 0.23 0.25 0.39 0.30 0.29 0.25 0.17 0.14 0.23 0.15 0.19 0.27 0.33 0.30 0.28 0.29 0.30 0.27 0.27 0.30 0.23 0.14 0.19 0.25 0.22 0.21 0.20 0.20 0.19 0.17 0.18 0.21 0.19 0.19 0.23 0.25 0.21 0.19 0.19 0.20 0.20 0.19 0.18 0.21 0.24 0.19 0.19 0.17 0.18 0.24 0.33 0.34 0.36 0.36 0.38 0.42 0.46 0.49 0.53 0.61 0.68 0.71 0.76 0.83 0.88
0.56 0.52 0.51 0.55 0.57 0.58 0.55 0.46 0.40 0.35 0.43 0.49 0.52 0.54 0.55 0.58 0.55 0.34 0.23 0.12 0.29 0.23 0.33 0.22 0.36 0.31 0.30 0.29 0.23 0.18 0.22 0.22 0.14 0.20 0.26 0.33 0.31 0.31 0.22 0.31 0.30 0.29 0.28 0.22 0.16 0.27 0.26 0.22 0.21 0.22 0.20 0.18 0.19 0.21 0.22 0.19 0.17 0.25 0.25 0.22 0.22 0.22 0.22 0.22 0.20 0.20 0.23 0.19 0.16 0.17 0.17 0.15 0.19 0.30 0.28 0.35 0.38 0.37 0.41 0.45 0.47 0.54 0.62 0.66 0.69 0.76 0.81 0.86
0.56 0.51 0.51 0.53 0.52 0.51 0.47 0.47 0.39 0.44 0.47 0.50 0.54 0.56 0.56 0.54 0.43 0.21 0.17 0.10 0.33 0.23 0.24 0.30 0.23 0.22 0.29 0.22 0.20 0.18 0.16 0.21 0.28 0.27 0.26 0.27 0.27 0.33 0.29 0.34 0.31 0.27 0.25 0.24 0.21 0.30 0.28 0.26 0.25 0.22 0.20 0.21 0.22 0.23 0.23 0.21 0.23 0.27 0.22 0.20 0.20 0.20 0.21 0.23 0.22 0.21 0.22 0.16 0.17 0.20 0.18 0.16 0.20 0.27 0.27 0.30 0.41 0.45 0.44 0.46 0.49 0.55 0.60 0.67 0.71 0.75 0.77 0.81
0.55 0.52 0.51 0.52 0.43 0.45 0.45 0.34 0.39 0.45 0.48 0.55 0.58 0.55 0.53 0.46 0.26 0.18 0.12 0.16 0.32 0.28 0.27 0.25 0.23 0.28 0.24 0.21 0.17 0.18 0.16 0.23 0.26 0.26 0.24 0.28 0.26 0.28 0.29 0.27 0.33 0.28 0.27 0.24 0.21 0.28 0.32 0.28 0.25 0.27 0.28 0.27 0.27 0.24 0.24 0.24 0.25 0.23 0.19 0.18 0.19 0.20 0.22 0.22 0.22 0.24 0.19 0.16 0.18 0.23 0.20 0.19 0.19 0.29 0.45 0.50 0.51 0.49 0.48 0.44 0.47 0.52 0.56 0.61 0.66 0.72 0.78 0.80
0.53 0.51 0.52 0.49 0.49 0.53 0.38 0.35 0.43 0.50 0.54 0.59 0.56 0.48 0.44 0.24 0.27 0.18 0.14 0.36 0.24 0.31 0.27 0.22 0.26 0.24 0.24 0.23 0.18 0.16 0.15 0.22 0.28 0.25 0.23 0.22 0.24 0.23 0.24 0.22 0.25 0.22 0.21 0.21 0.19 0.29 0.26 0.24 0.26 0.29 0.32 0.30 0.26 0.22 0.21 0.22 0.23 0.21 0.20 0.18 0.16 0.17 0.18 0.16 0.19 0.18 0.18 0.17 0.22 0.24 0.22 0.19 0.22 0.37 0.47 0.50 0.48 0.50 0.55 0.55 0.54 0.55 0.57 0.62 0.66 0.71 0.74 0.76
0.51 0.50 0.52 0.51 0.52 0.48 0.47 0.48 0.51 0.52 0.57 0.57 0.50 0.47 0.34 0.23 0.15 0.18 0.20 0.24 0.24 0.39 0.35 0.36 0.25 0.24 0.25 0.24 0.18 0.16 0.19 0.17 0.26 0.26 0.25 0.22 0.22 0.21 0.25 0.25 0.26 0.24 0.19 0.23 0.22 0.23 0.23 0.26 0.27 0.28 0.28 0.29 0.27 0.19 0.21 0.19 0.22 0.21 0.19 0.17 0.16 0.16 0.15 0.14 0.16 0.19 0.21 0.24 0.28 0.23 0.21 0.20 0.43 0.44 0.54 0.50 0.55 0.59 0.61 0.63 0.63 0.62 0.62 0.64 0.67 0.70 0.73 0.75
0.52 0.50 0.46 0.49 0.49 0.49 0.49 0.50 0.48 0.51 0.53 0.54 0.45 0.38 0.32 0.20 0.17 0.24 0.21 0.24 0.28 0.37 0.39 0.33 0.31 0.27 0.25 0.21 0.21 0.18 0.15 0.19 0.24 0.26 0.25 0.23 0.21 0.19 0.22 0.24 0.26 0.23 0.25 0.24 0.20 0.21 0.17 0.18 0.24 0.25 0.22 0.28 0.27 0.24 0.25 0.21 0.21 0.21 0.22 0.20 0.17 0.17 0.16 0.13 0.15 0.16 0.18 0.21 0.24 0.26 0.19 0.25 0.25 0.36 0.52 0.60 0.64 0.64 0.66 0.67 0.70 0.70 0.71 0.71 0.72 0.73 0.74 0.74
0.53 0.49 0.47 0.49 0.48 0.49 0.48 0.48 0.48 0.52 0.53 0.48 0.40 0.31 0.21 0.18 0.21 0.20 0.19 0.24 0.29 0.32 0.33 0.37 0.29 0.25 0.21 0.23 0.23 0.19 0.18 0.20 0.27 0.27 0.25 0.23 0.20 0.22 0.21 0.22 0.26 0.26 0.26 0.24 0.23 0.22 0.17 0.18 0.21 0.25 0.27 0.27 0.24 0.26 0.28 0.23 0.21 0.23 0.24 0.23 0.19 0.19 0.21 0.16 0.21 0.20 0.20 0.23 0.20 0.22 0.24 0.42 0.40 0.59 0.64 0.69 0.67 0.68 0.70 0.67 0.70 0.67 0.70 0.71 0.71 0.70 0.71 0.73
0.49 0.45 0.46 0.43 0.42 0.45 0.46 0.46 0.46 0.50 0.50 0.41 0.32 0.26 0.20 0.22 0.19 0.28 0.29 0.34 0.31 0.28 0.31 0.32 0.30 0.22 0.21 0.20 0.24 0.20 0.21 0.22 0.24 0.26 0.25 0.24 0.24 0.22 0.25 0.25 0.25 0.26 0.25 0.23 0.26 0.20 0.20 0.18 0.25 0.23 0.27 0.25 0.24 0.26 0.26 0.26 0.16 0.20 0.22 0.19 0.20 0.25 0.23 0.22 0.22 0.26 0.26 0.24 0.22 0.27 0.30 0.42 0.57 0.56 0.62 0.64 0.62 0.63 0.67 0.66 0.66 0.66 0.68 0.70 0.69 0.71 0.72 0.74
0.42 0.42 0.36 0.43 0.43 0.47 0.48 0.46 0.45 0.45 0.46 0.37 0.29 0.22 0.25 0.26 0.28 0.29 0.33 0.29 0.31 0.31 0.30 0.26 0.25 0.23 0.21 0.19 0.20 0.19 0.19 0.23 0.25 0.25 0.23 0.25 0.23 0.24 0.24 0.25 0.27 0.26 0.27 0.26 0.26 0.27 0.19 0.18 0.26 0.25 0.21 0.25 0.27 0.26 0.27 0.25 0.23 0.23 0.18 0.21 0.26 0.29 0.28 0.24 0.18 0.21 0.21 0.18 0.23 0.24 0.25 0.29 0.32 0.31 0.57 0.60 0.55 0.59 0.62 0.63 0.64 0.66 0.69 0.66 0.69 0.71 0.73 0.75
0.38 0.38 0.41 0.43 0.48 0.54 0.52 0.46 0.43 0.39 0.39 0.33 0.25 0.26 0.31 0.26 0.28 0.28 0.35 0.33 0.30 0.31 0.32 0.31 0.32 0.28 0.22 0.20 0.19 0.18 0.19 0.18 0.24 0.26 0.24 0.25 0.21 0.27 0.25 0.24 0.27 0.27 0.28 0.30 0.28 0.24 0.25 0.19 0.23 0.22 0.21 0.23 0.28 0.28 0.25 0.26 0.26 0.24 0.19 0.24 0.21 0.20 0.22 0.27 0.23 0.18 0.16 0.16 0.22 0.24 0.31 0.30 0.29 0.37 0.45 0.49 0.51 0.54 0.58 0.61 0.62 0.62 0.65 0.67 0.69 0.72 0.76 0.77
0.40 0.37 0.30 0.48 0.62 0.60 0.52 0.46 0.38 0.32 0.32 0.27 0.26 0.24 0.30 0.28 0.29 0.27 0.35 0.34 0.31 0.30 0.30 0.34 0.32 0.28 0.29 0.21 0.22 0.20 0.20 0.17 0.27 0.25 0.25 0.26 0.25 0.29 0.25 0.26 0.26 0.27 0.28 0.30 0.26 0.29 0.23 0.19 0.21 0.23 0.22 0.25 0.25 0.24 0.20 0.22 0.25 0.27 0.24 0.24 0.24 0.23 0.21 0.20 0.23 0.22 0.19 0.16 0.20 0.22 0.27 0.25 0.30 0.45 0.41 0.45 0.53 0.55 0.56 0.58 0.59 0.62 0.65 0.68 0.70 0.73 0.74 0.75
0.36 0.29 0.31 0.58 0.64 0.61 0.51 0.41 0.32 0.29 0.27 0.23 0.26 0.27 0.29 0.26 0.28 0.31 0.34 0.35 0.28 0.28 0.34 0.35 0.34 0.28 0.28 0.26 0.24 0.20 0.21 0.21 0.25 0.26 0.25 0.30 0.27 0.36 0.29 0.31 0.29 0.26 0.29 0.30 0.26 0.31 0.23 0.26 0.19 0.20 0.24 0.25 0.20 0.22 0.21 0.22 0.21 0.21 0.21 0.21 0.21 0.24 0.26 0.23 0.23 0.21 0.18 0.18 0.21 0.22 0.19 0.25 0.41 0.53 0.48 0.49 0.54 0.58 0.58 0.58 0.60 0.64 0.67 0.70 0.73 0.74 0.73 0.73
0.43 0.36 0.40 0.62 0.63 0.59 0.45 0.35 0.26 0.22 0.23 0.28 0.31 0.29 0.31 0.28 0.29 0.28 0.30 0.33 0.32 0.34 0.35 0.35 0.32 0.26 0.27 0.26 0.25 0.24 0.22 0.22 0.23 0.25 0.24 0.30 0.27 0.28 0.31 0.31 0.32 0.28 0.29 0.28 0.27 0.30 0.25 0.22 0.21 0.22 0.20 0.21 0.21 0.24 0.26 0.25 0.23 0.22 0.21 0.20 0.19 0.18 0.20 0.19 0.19 0.23 0.24 0.21 0.19 0.19 0.19 0.27 0.48 0.55 0.54 0.55 0.61 0.62 0.64 0.61 0.63 0.66 0.68 0.71 0.73 0.74 0.74 0.72
0.39 0.27 0.39 0.62 0.63 0.51 0.34 0.24 0.23 0.25 0.25 0.26 0.27 0.31 0.31 0.33 0.28 0.28 0.29 0.32 0.33 0.31 0.39 0.37 0.35 0.31 0.28 0.26 0.28 0.26 0.24 0.21 0.23 0.26 0.27 0.27 0.30 0.31 0.33 0.36 0.33 0.32 0.26 0.25 0.25 0.30 0.31 0.25 0.24 0.20 0.20 0.20 0.24 0.29 0.32 0.33 0.26 0.23 0.22 0.21 0.21 0.23 0.23 0.21 0.16 0.17 0.21 0.24 0.26 0.24 0.20 0.32 0.53 0.56 0.60 0.62 0.64 0.66 0.66 0.66 0.65 0.67 0.70 0.72 0.73 0.74 0.74 0.73
0.38 0.38 0.59 0.59 0.57 0.45 0.35 0.24 0.24 0.25 0.24 0.29 0.37 0.36 0.35 0.29 0.26 0.29 0.28 0.31 0.30 0.32 0.35 0.36 0.35 0.33 0.32 0.29 0.27 0.26 0.26 0.22 0.23 0.24 0.29 0.27 0.32 0.34 0.45 0.39 0.37 0.31 0.29 0.27 0.28 0.33 0.31 0.26 0.24 0.22 0.23 0.31 0.33 0.33 0.32 0.32 0.27 0.24 0.22 0.23 0.21 0.20 0.22 0.21 0.20 0.23 0.17 0.21 0.18 0.21 0.20 0.35 0.52 0.61 0.65 0.68 0.69 0.69 0.70 0.68 0.68 0.68 0.71 0.72 0.71 0.71 0.70 0.69
0.45 0.44 0.47 0.53 0.54 0.51 0.34 0.21 0.23 0.23 0.23 0.30 0.33 0.31 0.30 0.28 0.28 0.27 0.29 0.33 0.32 0.34 0.37 0.38 0.39 0.39 0.33 0.32 0.30 0.25 0.27 0.24 0.29 0.26 0.26 0.31 0.35 0.48 0.46 0.41 0.35 0.31 0.28 0.29 0.26 0.32 0.24 0.28 0.27 0.21 0.23 0.25 0.26 0.28 0.28 0.30 0.28 0.23 0.23 0.25 0.23 0.21 0.21 0.23 0.23 0.26 0.19 0.20 0.18 0.18 0.17 0.31 0.52 0.64 0.68 0.70 0.68 0.65 0.65 0.69 0.70 0.68 0.69 0.69 0.69 0.69 0.68 0.68
0.48 0.52 0.50 0.45 0.52 0.46 0.28 0.28 0.24 0.22 0.22 0.26 0.25 0.23 0.25 0.25 0.28 0.29 0.33 0.34 0.34 0.35 0.38 0.38 0.39 0.38 0.34 0.34 0.33 0.32 0.29 0.28 0.26 0.36 0.34 0.34 0.39 0.45 0.48 0.43 0.38 0.33 0.31 0.39 0.33 0.37 0.28 0.29 0.29 0.23 0.19 0.17 0.18 0.17 0.19 0.22 0.24 0.25 0.25 0.26 0.24 0.24 0.24 0.23 0.21 0.24 0.20 0.23 0.22 0.20 0.22 0.40 0.52 0.62 0.60 0.63 0.63 0.62 0.65 0.67 0.70 0.71 0.69 0.67 0.66 0.67 0.67 0.65
0.42 0.31 0.42 0.41 0.41 0.38 0.36 0.41 0.36 0.29 0.24 0.24 0.22 0.23 0.24 0.25 0.27 0.33 0.36 0.34 0.36 0.38 0.40 0.41 0.41 0.36 0.33 0.32 0.31 0.31 0.30 0.33 0.28 0.26 0.31 0.32 0.38 0.42 0.49 0.46 0.40 0.36 0.39 0.38 0.38 0.36 0.32 0.34 0.36 0.36 0.25 0.22 0.23 0.27 0.37 0.28 0.26 0.26 0.27 0.25 0.24 0.24 0.26 0.24 0.24 0.23 0.20 0.24 0.21 0.22 0.30 0.34 0.42 0.51 0.52 0.55 0.56 0.55 0.57 0.61 0.63 0.64 0.66 0.67 0.67 0.66 0.65 0.63
0.49 0.37 0.35 0.30 0.35 0.34 0.30 0.32 0.30 0.31 0.26 0.26 0.20 0.22 0.23 0.25 0.27 0.31 0.36 0.33 0.40 0.42 0.42 0.41 0.38 0.36 0.36 0.35 0.34 0.31 0.30 0.28 0.31 0.29 0.31 0.34 0.39 0.42 0.48 0.47 0.42 0.46 0.43 0.37 0.42 0.37 0.32 0.30 0.34 0.36 0.34 0.37 0.38 0.38 0.37 0.32 0.28 0.28 0.27 0.25 0.27 0.27 0.27 0.26 0.24 0.21 0.24 0.22 0.18 0.32 0.32 0.28 0.35 0.46 0.49 0.50 0.55 0.57 0.59 0.61 0.62 0.63 0.63 0.63 0.65 0.66 0.64 0.61
0.38 0.44 0.44 0.40 0.26 0.22 0.23 0.24 0.28 0.28 0.33 0.27 0.23 0.31 0.29 0.24 0.26 0.28 0.38 0.42 0.44 0.46 0.38 0.40 0.39 0.40 0.40 0.40 0.38 0.30 0.29 0.28 0.29 0.31 0.37 0.36 0.36 0.43 0.43 0.47 0.43 0.46 0.41 0.38 0.42 0.37 0.31 0.28 0.34 0.36 0.36 0.42 0.42 0.39 0.38 0.35 0.37 0.34 0.32 0.29 0.27 0.28 0.27 0.26 0.26 0.32 0.27 0.21 0.20 0.27 0.30 0.28 0.37 0.46 0.51 0.54 0.56 0.58 0.60 0.61 0.64 0.66 0.65 0.65 0.64 0.63 0.61 0.60
0.52 0.50 0.49 0.46 0.32 0.35 0.23 0.30 0.27 0.26 0.29 0.30 0.27 0.29 0.32 0.31 0.28 0.32 0.41 0.43 0.43 0.42 0.43 0.35 0.39 0.42 0.42 0.44 0.42 0.35 0.30 0.28 0.29 0.35 0.32 0.33 0.37 0.40 0.40 0.43 0.48 0.45 0.42 0.38 0.39 0.45 0.37 0.35 0.34 0.39 0.37 0.41 0.41 0.40 0.38 0.34 0.34 0.34 0.33 0.33 0.32 0.31 0.33 0.34 0.34 0.35 0.34 0.32 0.32 0.34 0.41 0.44 0.49 0.52 0.56 0.58 0.62 0.61 0.61 0.63 0.65 0.63 0.63 0.63 0.63 0.61 0.60 0.60
0.45 0.44 0.40 0.44 0.41 0.40 0.29 0.31 0.31 0.29 0.29 0.34 0.28 0.26 0.31 0.34 0.35 0.41 0.45 0.42 0.37 0.40 0.45 0.38 0.40 0.47 0.47 0.44 0.42 0.37 0.34 0.33 0.32 0.31 0.39 0.36 0.40 0.44 0.41 0.37 0.35 0.41 0.41 0.38 0.37 0.39 0.37 0.31 0.39 0.38 0.33 0.35 0.40 0.41 0.39 0.36 0.35 0.32 0.36 0.37 0.36 0.35 0.35 0.34 0.32 0.33 0.34 0.34 0.39 0.39 0.35 0.38 0.51 0.60 0.57 0.61 0.62 0.62 0.61 0.59 0.59 0.62 0.64 0.63 0.62 0.60 0.59 0.59
0.58 0.60 0.56 0.40 0.32 0.39 0.32 0.31 0.35 0.33 0.32 0.34 0.28 0.32 0.31 0.39 0.42 0.45 0.42 0.46 0.42 0.40 0.43 0.42 0.47 0.49 0.49 0.48 0.44 0.41 0.41 0.41 0.37 0.36 0.41 0.42 0.34 0.46 0.40 0.36 0.37 0.32 0.37 0.37 0.38 0.37 0.37 0.35 0.40 0.37 0.28 0.31 0.40 0.39 0.38 0.39 0.36 0.34 0.34 0.35 0.36 0.35 0.32 0.35 0.33 0.38 0.39 0.36 0.38 0.35 0.32 0.33 0.47 0.55 0.59 0.61 0.60 0.58 0.56 0.57 0.59 0.63 0.64 0.64 0.61 0.61 0.59 0.61
0.63 0.65 0.60 0.47 0.33 0.41 0.32 0.32 0.39 0.37 0.30 0.35 0.31 0.34 0.36 0.43 0.46 0.45 0.39 0.44 0.46 0.47 0.47 0.51 0.52 0.50 0.47 0.45 0.44 0.47 0.47 0.46 0.44 0.46 0.48 0.49 0.49 0.47 0.48 0.45 0.42 0.33 0.32 0.36 0.39 0.34 0.33 0.33 0.31 0.30 0.27 0.29 0.37 0.42 0.38 0.36 0.32 0.28 0.31 0.36 0.38 0.38 0.39 0.39 0.40 0.42 0.45 0.47 0.34 0.28 0.31 0.40 0.46 0.53 0.52 0.55 0.59 0.59 0.60 0.60 0.62 0.64 0.64 0.64 0.62 0.60 0.61 0.63
Wind_Speed
24 25 25 25 26 26 26 26 26 26 26 25 25 25 24 24 23 23 22 22 21 21 20 20 20 19 19 19 19 19 19 20 21 22 23 24 24 23 23 22 21 21 21 20 19 19 19 19 18 18 18 17 17 17 17 17 17 16 16 16 16 16 15 15 15 13 12 11 10 10 11 12 13 13 13 13 13 12 11 10 9 8 7 7 8 9 9 9
24 25 25 25 25 26 26 26 27 27 27 26 26 25 25 24 24 24 23 22 22 21 21 20 20 20 19 19 19 18 18 19 20 22 23 24 24 24 23 23 22 22 22 21 21 21 20 20 19 19 18 17 17 17 17 17 17 17 16 16 16 15 14 14 14 13 12 12 11 11 11 12 13 13 14 14 13 13 13 11 11 9 8 9 9 9 10 10
24 25 25 25 25 26 26 26 27 27 27 27 26 26 26 25 25 25 24 23 23 22 21 21 21 20 20 20 19 18 18 18 19 20 20 21 22 23 23 24 24 23 23 22 22 22 21 20 20 19 18 18 17 17 18 17 18 18 16 16 16 15 15 15 15 14 12 12 12 11 12 12 12 13 14 14 13 14 13 12 12 12 11 10 10 10 10 10
24 25 25 25 25 26 26 27 27 27 27 27 27 27 26 26 26 25 25 24 23 23 22 21 21 21 20 20 19 18 18 18 18 17 17 18 18 20 22 23 24 24 23 23 23 23 22 21 21 20 19 18 18 18 18 18 17 17 17 17 15 15 16 16 16 14 12 12 12 12 12 12 12 13 14 14 14 13 13 11 12 12 13 12 11 11 10 10
25 25 25 26 26 26 26 27 28 28 27 27 28 27 27 27 26 26 26 25 24 24 23 22 22 21 21 20 19 19 18 17 16 16 16 16 16 17 19 21 23 23 23 23 23 23 22 22 22 21 20 18 18 19 19 19 18 17 18 18 16 16 17 16 16 14 13 13 13 12 12 12 12 13 14 15 13 11 11 10 10 11 12 12 12 11 10 10
26 26 26 26 27 27 27 27 28 28 28 28 28 28 28 28 27 27 26 26 25 25 24 23 22 22 21 21 20 20 19 17 15 16 17 16 16 16 17 18 21 22 22 23 23 23 23 23 22 22 21 19 19 19 19 20 20 18 18 19 19 19 18 17 16 15 14 14 13 12 12 12 13 13 14 15 11 9 9 9 10 10 12 12 11 10 10 10
27 26 26 26 27 27 27 27 28 28 28 28 28 28 28 28 28 28 27 27 26 25 25 24 23 22 22 21 21 21 22 20 17 16 17 17 17 17 17 18 20 21 22 22 22 23 24 24 24 22 21 20 20 20 19 19 20 19 18 19 20 20 20 19 18 17 16 15 14 13 13 14 14 12 13 14 11 8 9 9 10 10 11 11 10 10 10 10
27 27 27 27 27 27 28 27 27 28 28 29 29 29 29 29 29 28 28 28 27 26 25 25 24 23 22 22 22 22 23 23 21 20 18 18 18 18 18 18 19 21 22 22 22 22 23 24 24 23 22 21 20 20 19 19 20 21 19 18 19 20 20 20 19 18 17 16 14 14 14 14 14 13 13 14 12 10 10 10 10 10 10 10 9 10 10 11
27 27 27 28 28 27 27 28 28 28 28 29 29 29 29 29 29 29 29 28 28 27 26 25 25 24 23 23 23 23 22 21 21 21 20 19 18 19 19 19 20 21 23 23 22 22 22 23 24 23 22 21 21 21 21 20 19 20 21 20 20 21 20 20 20 19 18 16 15 15 15 14 14 13 14 14 12 11 11 11 10 10 10 9 9 10 10 11
27 27 27 28 28 28 28 28 28 28 28 29 29 29 29 30 30 29 29 29 28 28 27 26 26 25 25 24 24 23 21 21 21 20 19 19 19 19 19 20 21 22 23 23 23 23 22 21 22 22 21 21 21 21 22 21 17 18 22 22 21 21 21 21 21 20 18 17 16 16 15 14 14 14 14 14 13 12 12 12 11 11 10 10 9 10 10 10
27 27 27 27 28 28 28 28 29 28 28 28 29 29 29 30 30 30 30 29 29 28 28 27 26 26 26 25 26 24 21 21 21 20 19 19 19 20 20 20 21 23 23 23 24 23 22 21 20 20 19 20 21 21 22 22 18 17 20 21 22 22 22 22 22 20 19 17 17 16 16 15 16 15 13 14 14 13 13 13 12 11 10 10 9 9 9 9
27 27 27 27 28 28 28 29 29 29 28 28 29 29 30 30 30 30 30 29 29 29 28 28 27 27 26 27 28 26 23 22 22 20 19 19 19 20 20 20 21 23 23 23 24 24 22 21 20 20 18 18 20 20 21 22 20 19 19 19 21 22 23 23 23 21 20 18 16 17 16 16 17 16 14 14 14 13 13 14 13 12 11 10 9 9 9 9
27 27 27 27 27 28 29 29 28 29 29 28 29 29 30 30 30 30 30 30 29 29 28 28 28 27 27 27 27 27 26 25 24 23 21 20 20 20 20 21 21 22 23 23 23 23 22 21 21 22 19 18 19 18 18 21 21 19 20 19 19 21 22 24 23 21 21 18 17 18 16 16 18 17 15 15 14 14 14 14 14 12 11 10 9 9 8 9
26 26 26 26 27 28 28 28 28 28 28 28 28 29 30 30 30 30 30 30 29 29 29 28 28 27 28 27 26 27 27 26 26 26 25 23 22 21 20 21 21 21 22 22 22 22 22 21 22 22 20 19 18 18 18 19 20 19 20 20 19 20 21 23 23 22 21 18 18 19 16 15 18 17 16 16 15 14 15 15 15 12 11 11 10 9 8 9
26 26 26 26 26 27 27 27 27 27 28 28 28 29 29 30 30 30 30 30 30 29 29 28 28 27 28 28 27 27 27 27 28 27 27 25 24 22 21 22 22 21 21 21 21 22 22 22 23 22 21 20 18 19 20 19 19 20 20 20 21 20 19 21 23 23 21 18 19 20 15 13 16 17 17 16 15 15 15 16 15 12 12 11 10 9 8 8
26 26 25 25 25 26 26 27 27 27 27 27 27 28 29 29 30 30 30 30 30 29 28 28 28 28 27 26 26 26 27 27 27 27 27 27 26 24 22 23 22 22 21 21 21 22 22 22 23 22 21 21 20 20 20 19 20 21 20 20 21 22 19 20 24 24 21 18 20 21 16 13 14 15 15 15 15 15 15 16 15 13 12 12 11 10 8 8
25 25 25 25 25 25 25 26 27 27 27 27 27 27 28 28 29 30 30 29 29 28 28 27 27 28 28 25 25 26 27 26 26 26 26 27 27 25 24 24 23 22 22 21 21 22 23 23 23 22 21 21 21 21 20 21 21 21 21 19 20 23 20 18 22 24 22 20 20 21 18 13 13 14 14 15 15 16 16 16 16 14 12 13 12 10 9 8
25 25 25 25 25 25 24 25 26 26 27 27 27 26 26 26 27 28 28 28 27 27 27 27 27 27 27 27 27 25 25 25 25 25 26 27 27 26 25 24 23 23 23 22 23 23 24 24 23 22 22 22 22 22 21 22 21 21 22 19 19 22 21 19 21 23 24 22 20 22 20 14 13 13 13 14 15 15 17 16 16 15 13 13 12 11 10 9
24 24 24 24 24 24 24 24 25 25 26 26 25 25 25 24 24 25 27 28 27 27 26 27 29 26 23 25 26 25 25 25 25 26 26 27 27 27 26 25 24 25 24 23 24 25 24 24 24 24 24 24 24 24 22 20 20 22 22 20 19 21 21 19 18 21 24 22 21 22 21 17 14 13 13 13 14 15 16 16 15 15 14 13 13 12 11 9
23 23 23 23 23 23 23 23 24 24 24 24 24 23 24 24 24 25 26 28 30 28 26 27 30 28 23 22 23 24 26 26 26 26 26 27 28 27 27 26 26 26 25 24 24 25 25 24 25 26 25 25 25 25 23 19 19 21 22 21 19 20 22 20 17 20 22 22 21 21 22 19 14 13 13 12 14 15 16 16 15 15 14 13 13 12 11 10
23 23 23 22 22 22 22 23 23 23 24 24 23 23 23 23 24 23 24 28 31 31 29 28 30 30 28 25 22 22 24 26 26 26 27 28 28 28 27 28 27 26 26 25 23 24 26 26 27 27 25 25 25 25 22 20 20 21 21 21 20 20 21 21 19 20 22 21 21 22 21 18 14 13 13 14 15 15 14 15 16 16 15 14 13 13 12 11
22 22 22 22 21 21 21 22 22 22 23 23 23 23 23 22 22 21 22 25 28 31 31 30 30 30 30 28 26 24 24 26 27 27 27 29 30 29 28 29 28 26 26 26 24 24 26 27 27 27 26 25 25 25 23 21 22 21 21 21 20 20 19 19 19 19 21 21 20 23 21 17 16 15 14 15 15 13 12 13 14 15 15 15 14 13 13 12
22 22 22 21 21 21 21 21 21 21 22 22 23 23 21 20 20 21 22 23 25 28 30 31 31 31 31 30 28 28 27 27 27 28 28 30 31 30 28 29 28 27 27 27 26 25 26 26 27 27 26 25 25 25 25 22 22 22 21 21 21 22 19 18 20 19 20 20 18 21 21 17 17 17 15 15 14 12 12 12 13 14 15 15 14 14 13 13
22 21 21 21 20 20 20 20 20 21 21 22 22 22 20 20 19 20 21 22 23 25 27 29 30 30 30 29 28 29 29 28 28 28 29 31 31 30 29 29 28 28 28 29 28 27 25 25 26 26 26 27 26 26 26 24 23 23 23 21 20 23 21 17 20 20 19 19 19 20 19 18 19 18 17 16 15 14 12 12 14 14 15 15 14 13 13 13
21 20 20 20 20 19 18 19 19 19 20 20 20 20 20 19 18 18 20 20 21 22 24 26 27 27 29 27 27 29 28 29 29 28 29 31 32 29 28 28 28 28 28 29 29 27 26 25 26 27 27 28 27 26 27 25 23 23 24 23 19 22 22 17 19 22 20 20 21 22 19 18 19 19 18 17 16 15 13 12 14 15 15 16 15 14 13 13
21 20 19 19 19 18 18 17 17 18 18 19 18 18 18 18 17 17 18 18 19 19 21 23 23 24 27 28 28 27 26 28 29 28 28 31 32 29 27 27 27 27 28 28 27 26 26 25 26 27 28 29 28 26 27 27 24 23 25 24 20 20 22 19 20 21 20 19 21 23 20 16 19 20 19 18 17 16 14 13 13 14 15 15 15 14 14 13
20 19 18 18 17 17 17 16 16 17 17 17 18 17 17 17 16 16 17 17 17 18 19 20 21 22 24 27 28 26 23 24 27 29 29 30 31 30 27 27 26 27 27 26 26 26 26 27 27 28 29 28 28 27 27 28 24 21 23 26 23 20 21 21 21 21 19 16 18 23 22 17 18 20 19 20 18 17 15 13 12 14 14 14 14 13 14 13
20 18 18 17 17 17 17 16 16 17 17 16 17 17 16 16 16 16 16 15 14 16 17 19 19 20 22 24 28 27 21 21 25 28 29 29 30 30 28 28 27 26 26 26 26 25 26 28 27 29 29 27 27 27 27 29 25 20 22 25 23 22 21 21 21 21 19 17 19 23 23 19 17 18 20 21 19 17 16 14 13 13 14 13 13 12 12 11
19 18 17 17 17 17 17 17 17 17 17 16 16 16 16 16 16 15 15 14 13 14 15 17 19 20 21 23 28 27 22 21 23 25 28 29 30 29 27 27 27 26 27 27 25 23 25 28 28 28 28 26 27 27 27 29 25 20 22 24 22 22 21 20 20 20 19 20 21 23 25 20 16 18 20 21 19 17 16 15 14 14 13 13 13 12 12 12
19 18 17 17 17 16 16 17 17 17 17 17 16 16 16 16 16 15 14 13 13 13 14 17 19 20 22 23 26 27 25 22 21 24 28 29 30 29 25 26 26 25 25 27 26 23 23 27 27 27 27 26 26 26 26 29 25 21 22 24 22 22 21 20 20 20 19 21 21 23 26 22 16 18 20 20 18 17 17 16 15 14 13 12 12 12 12 12
19 18 17 17 17 16 15 15 16 17 17 16 16 15 16 16 15 15 14 13 12 12 13 16 18 20 23 23 24 26 26 23 22 25 27 27 29 28 25 25 25 25 25 26 26 24 23 26 27 26 27 26 26 25 26 27 26 23 23 24 23 22 22 21 20 20 20 21 21 22 25 23 18 17 19 19 18 17 17 16 16 15 14 12 12 11 11 12
18 18 17 18 18 17 16 15 15 16 16 15 15 16 16 16 16 15 13 13 13 12 12 15 17 20 23 23 23 26 26 23 23 26 26 27 28 28 27 26 26 26 25 25 26 24 24 26 26 26 27 27 26 26 26 27 26 25 25 25 25 23 22 22 22 22 21 19 19 21 23 21 16 16 19 19 19 18 16 16 16 15 14 13 12 11 11 11
18 18 18 18 18 18 18 16 16 16 15 15 16 17 16 15 16 16 14 14 13 12 12 14 16 19 22 22 22 25 26 24 24 25 26 27 27 27 28 27 27 26 24 25 25 24 24 25 27 27 27 28 29 27 27 27 28 28 27 27 26 23 23 23 22 22 22 18 17 20 22 20 16 16 18 19 18 18 17 16 15 14 13 12 11 11 10 10
18 18 18 18 19 19 19 18 17 17 16 15 16 17 16 15 14 15 15 14 12 13 13 14 15 18 22 22 21 25 25 23 25 25 25 27 26 26 28 28 29 27 23 25 25 24 24 25 28 28 26 28 30 28 27 27 27 28 26 26 27 24 23 22 22 22 23 19 17 20 20 19 18 18 18 18 18 18 17 16 15 14 13 11 10 10 10 9
18 18 18 18 19 20 20 19 19 18 17 17 17 17 17 16 13 14 16 14 12 13 13 14 16 18 21 21 21 25 25 22 25 26 25 27 26 26 27 27 29 28 24 24 23 24 25 23 26 29 26 28 30 28 26 27 27 27 26 26 26 25 22 20 19 18 19 18 18 19 17 16 17 18 18 19 19 18 18 17 16 14 12 11 10 10 9 9
18 18 18 19 19 19 20 20 20 19 18 18 18 18 17 15 12 12 14 14 13 12 13 15 17 18 20 21 21 26 25 22 25 26 24 27 27 26 27 26 28 29 26 24 22 23 24 21 24 28 26 27 30 29 27 27 26 25 27 27 25 23 22 20 18 16 18 18 17 18 17 16 17 18 20 21 19 19 18 17 16 14 13 12 10 10 9 8
17 17 18 19 19 18 19 20 20 20 19 19 18 18 17 15 13 12 12 13 12 11 13 15 17 18 20 21 21 25 26 23 25 25 24 26 26 27 27 25 27 29 27 24 22 22 22 20 23 27 26 26 28 29 28 28 26 25 28 28 25 22 21 22 21 19 20 19 17 19 21 20 20 19 21 22 20 19 18 17 16 14 13 12 11 10 9 8
16 17 17 18 18 18 19 20 20 20 19 19 19 18 16 16 15 13 12 12 12 10 12 15 15 15 18 21 21 24 26 24 24 24 23 23 23 25 27 25 26 29 28 25 22 21 22 20 21 26 27 25 26 27 28 29 28 26 26 27 26 24 22 23 21 20 22 19 17 20 22 21 21 21 23 24 21 20 19 17 16 15 13 13 11 10 9 8
16 17 17 17 18 19 19 20 20 20 19 19 19 17 16 16 16 15 13 12 11 10 12 15 15 14 15 19 21 24 26 25 24 24 22 22 21 23 26 25 25 28 28 26 22 20 22 21 19 24 26 25 26 27 28 29 28 26 26 27 27 25 23 23 21 20 21 19 17 20 21 20 20 20 24 25 22 20 19 17 16 15 14 13 11 10 9 8
17 17 16 17 18 19 20 20 19 19 19 19 18 16 15 15 15 15 14 13 12 11 13 14 14 14 13 15 18 22 25 25 25 23 22 22 20 21 25 25 24 26 28 26 22 20 22 21 18 22 25 25 26 28 28 29 29 28 27 28 28 25 22 23 21 20 20 19 18 19 19 19 17 18 23 24 21 20 20 18 16 15 14 13 11 10 10 9
17 17 16 17 19 20 20 19 19 19 18 18 17 16 15 14 14 14 13 14 14 12 13 14 14 14 14 14 17 20 23 24 24 23 21 22 21 20 23 24 23 25 27 25 23 21 21 21 19 22 25 26 27 27 26 27 29 29 27 27 28 26 24 23 21 20 20 18 18 19 18 17 16 17 20 21 20 20 19 18 16 15 14 13 11 11 11 10
17 17 16 17 20 21 20 18 18 18 18 17 16 16 15 15 14 14 13 15 15 12 13 14 14 15 15 16 17 18 21 23 23 22 20 22 22 20 21 24 24 25 26 24 23 21 19 20 20 22 25 24 23 23 22 23 27 28 26 26 27 27 26 23 21 21 20 17 17 18 17 15 16 18 19 19 19 19 19 18 16 15 14 13 12 11 11 10
17 16 16 18 21 20 18 17 17 18 18 17 15 15 16 15 15 14 14 14 13 12 12 13 14 15 16 16 17 18 20 21 22 22 20 21 21 19 20 24 25 25 25 24 23 21 18 19 21 22 22 21 19 20 21 22 25 26 26 26 27 27 27 23 20 20 21 19 17 17 16 14 15 18 18 19 20 19 18 17 16 15 14 13 12 12 11 10
16 15 16 19 20 18 17 16 17 17 17 16 16 16 16 16 15 15 14 14 13 12 12 13 13 15 16 16 17 19 20 20 20 21 20 19 19 17 18 22 24 25 25 23 22 22 20 19 21 22 21 20 20 21 23 24 25 26 25 26 27 27 27 23 18 18 20 21 20 18 15 14 15 17 18 19 19 18 18 17 16 16 15 13 13 12 11 10
15 15 16 19 19 18 16 15 15 16 17 17 17 18 17 16 15 15 14 13 12 12 13 13 13 14 15 15 16 19 21 20 20 21 19 18 17 17 18 21 24 25 23 22 23 23 20 18 20 21 21 22 22 22 24 25 25 25 25 26 26 26 26 23 19 19 19 20 21 19 15 15 16 18 18 19 19 18 17 17 17 16 15 14 13 12 11 10
15 15 17 19 19 18 16 15 14 15 17 18 18 18 18 17 15 15 14 13 12 13 13 12 12 14 15 16 17 19 21 21 21 21 20 17 17 17 17 20 23 23 21 21 23 22 19 17 17 17 17 19 20 19 20 23 25 24 24 26 26 25 25 23 20 19 18 18 19 18 15 16 18 19 19 19 19 18 18 18 17 16 15 14 12 11 10 10
14 15 17 19 19 17 16 16 16 16 17 18 18 17 18 17 14 13 13 12 12 13 13 13 13 14 15 17 18 19 21 22 21 22 20 17 16 15 16 19 23 22 21 22 23 21 20 18 16 14 13 14 16 16 18 21 23 23 24 25 26 24 23 23 20 18 18 18 17 16 16 17 19 19 19 19 19 18 17 17 16 15 14 14 12 11 10 9
15 15 17 19 17 16 16 17 18 18 17 18 18 16 16 16 14 13 12 11 11 12 12 12 14 16 17 17 17 18 21 22 22 22 20 18 17 16 17 19 22 23 23 23 22 21 20 19 17 15 13 13 15 16 18 20 20 20 20 22 23 22 22 22 19 16 16 16 15 16 16 16 18 19 18 18 19 18 17 16 15 14 14 13 13 12 10 9
15 14 17 18 15 14 16 18 19 19 18 18 18 17 16 14 14 14 12 10 10 11 11 11 13 17 18 17 16 18 21 21 21 21 20 18 18 17 18 20 22 23 24 23 21 20 19 18 18 18 15 13 14 17 18 20 20 18 18 18 20 20 19 19 17 15 15 13 13 15 14 12 14 16 16 17 17 16 16 15 15 14 13 13 12 11 10 9
14 14 16 17 15 14 17 18 19 19 18 19 19 18 15 13 13 13 12 10 9 9 10 11 13 16 17 17 18 18 18 18 20 20 20 19 18 17 17 19 21 23 23 22 21 20 19 18 19 18 15 13 14 17 18 20 20 19 17 17 18 19 17 17 16 15 14 13 13 15 14 12 12 13 14 15 15 15 15 15 14 13 13 13 12 11 10 9
14 14 15 16 15 15 18 18 18 18 19 19 19 17 15 13 12 12 11 10 9 8 7 9 13 16 15 15 17 17 15 16 17 17 17 17 16 15 16 17 20 22 21 20 20 20 19 18 19 18 16 13 14 17 18 19 19 18 17 16 17 18 17 16 15 14 14 15 15 15 14 14 13 13 13 14 14 15 15 14 13 13 13 13 12 10 10 9
13 14 15 16 15 16 18 18 17 18 18 18 19 17 14 12 11 11 11 10 9 8 8 10 14 17 14 14 16 15 15 16 16 15 14 14 14 13 13 15 17 20 20 18 18 19 19 19 19 19 16 14 15 16 18 19 19 17 16 16 16 17 17 16 15 13 12 14 15 14 13 14 15 14 14 14 14 15 14 14 13 13 13 13 11 11 10 9
Wind_Direction
269 267 265 262 260 259 257 256 254 254 253 253 252 251 251 250 250 250 250 251 251 252 253 254 254 255 256 256 256 256 255 253 249 245 242 240 239 237 236 235 230 228 228 226 223 220 220 221 222 222 225 227 229 228 225 227 226 226 228 227 227 226 225 221 216 217 221 222 223 216 212 213 204 203 206 205 207 201 200 203 200 202 207 206 201 194 191 192
270 267 265 263 261 259 258 256 255 253 252 252 251 251 250 250 249 249 249 250 250 251 252 253 253 254 255 256 256 256 256 253 250 247 244 241 239 236 235 232 228 227 227 224 222 221 220 221 220 221 225 227 228 226 224 225 224 225 227 227 226 225 223 221 220 221 225 226 223 215 210 212 207 203 205 206 204 202 203 202 201 201 202 203 199 196 195 196
271 268 265 264 262 260 258 256 255 254 252 251 250 250 249 249 248 248 248 249 249 250 250 252 252 253 254 254 255 255 254 253 250 245 242 240 238 235 233 230 226 227 227 225 223 223 224 222 219 220 225 227 227 225 225 224 223 226 226 226 226 225 223 219 219 221 222 223 220 215 213 210 206 206 208 207 203 203 205 202 206 206 200 199 198 198 200 202
272 269 266 264 263 261 259 257 256 254 253 251 250 249 248 248 248 248 248 248 248 249 250 251 252 252 253 253 253 252 251 250 245 236 236 237 236 233 231 229 226 226 227 226 225 225 227 224 221 222 225 227 226 225 225 222 222 225 224 225 226 223 222 217 217 219 217 219 218 216 217 213 209 212 211 206 202 204 206 203 210 207 196 195 198 200 205 206
272 270 267 264 263 262 260 258 256 254 252 251 250 249 248 247 247 247 247 247 247 248 249 250 251 251 252 251 250 248 245 244 237 231 233 235 233 230 228 227 225 225 226 226 225 225 225 223 222 224 226 227 225 225 226 222 223 226 224 227 227 222 220 216 214 215 216 219 219 218 220 216 212 212 208 206 205 206 208 209 211 202 192 193 197 202 207 207
272 270 268 266 263 262 261 260 257 254 252 251 250 249 248 247 247 246 246 246 246 247 248 248 249 250 250 250 247 243 238 237 235 232 232 233 234 230 228 227 224 223 224 223 222 222 222 221 222 224 226 227 225 226 227 222 224 227 225 226 226 223 220 217 214 215 218 220 220 220 218 214 212 208 204 205 208 207 206 206 201 192 191 193 197 204 209 210
272 270 268 267 265 263 262 260 257 255 253 251 250 249 248 247 246 246 245 245 245 246 247 247 248 248 249 248 243 239 237 238 238 235 235 237 238 233 230 228 223 222 221 220 219 219 220 219 222 224 226 227 226 226 226 222 223 227 226 224 224 222 220 219 218 218 219 221 222 221 217 213 211 208 203 203 204 201 198 196 192 190 193 196 200 209 213 214
272 270 268 267 266 264 262 260 257 255 253 251 250 249 248 247 246 246 245 245 244 245 245 245 246 246 246 244 241 239 237 238 240 239 241 241 239 234 231 228 223 222 220 218 217 218 219 219 222 225 226 228 226 225 223 223 224 226 226 224 222 220 219 218 218 218 218 220 219 217 217 212 210 208 205 202 199 197 196 193 191 193 197 202 208 214 218 218
272 270 268 267 266 264 261 259 257 255 253 251 250 249 247 246 246 245 244 244 244 244 244 244 244 244 244 241 240 240 237 237 240 241 241 239 236 232 229 226 224 221 219 218 218 218 219 221 223 224 228 228 226 224 221 223 225 223 224 224 222 219 218 216 216 218 217 217 216 215 214 209 206 207 206 204 199 197 197 195 195 198 201 207 214 218 220 220
273 270 268 266 265 264 262 259 257 255 253 252 250 249 248 246 246 245 244 243 243 243 243 242 243 242 241 239 237 238 235 236 239 238 237 235 232 230 229 227 223 220 218 218 218 219 220 223 223 225 230 228 225 224 221 223 226 221 222 224 223 221 220 217 217 218 217 217 216 215 214 206 203 207 207 203 201 200 198 199 200 202 206 210 215 218 220 221
273 271 269 266 265 264 262 259 257 254 253 252 250 249 248 246 245 244 243 243 242 242 242 241 241 241 239 237 236 235 234 236 237 236 235 234 231 229 229 228 222 220 219 218 218 219 221 225 223 222 228 227 224 224 222 223 225 222 221 224 223 223 221 218 217 217 216 215 212 213 213 206 203 208 206 198 202 204 201 201 204 206 208 210 213 217 221 220
273 271 269 267 265 263 262 259 257 254 253 251 250 248 247 246 245 244 242 242 241 241 240 240 240 239 238 237 236 235 234 235 235 234 233 233 232 229 230 228 222 221 220 219 219 218 221 224 221 220 224 224 220 222 223 222 223 221 220 222 220 220 221 217 215 215 215 213 209 210 211 206 205 207 203 200 205 206 205 204 206 209 208 210 214 218 220 215
273 271 269 267 265 263 261 259 256 254 253 251 250 249 247 246 245 243 242 241 240 240 239 239 238 237 237 237 236 235 235 235 236 235 233 232 233 232 230 226 222 222 222 221 219 218 220 222 220 220 223 223 219 220 222 218 220 219 218 222 218 217 218 214 212 213 213 211 208 210 211 207 206 206 204 206 209 208 209 209 208 210 209 210 215 216 214 210
273 271 269 268 267 264 261 257 255 254 253 252 250 249 247 245 244 243 241 240 239 239 238 237 237 236 237 237 237 237 236 236 236 235 233 232 233 233 230 224 222 222 222 222 220 218 220 221 221 221 222 224 221 218 218 216 218 217 216 220 219 217 214 209 209 210 210 210 207 210 214 209 204 204 206 209 212 212 210 209 210 211 210 208 208 209 208 210
272 271 269 269 268 266 261 256 254 253 252 252 251 249 247 245 243 242 240 239 238 237 236 236 235 235 237 239 238 237 235 234 235 234 232 230 230 230 226 222 221 220 220 221 220 218 219 219 220 220 219 221 220 215 216 216 216 215 214 216 217 216 210 206 208 208 209 208 205 207 210 205 201 202 206 210 214 215 212 210 209 208 206 204 203 204 205 210
272 271 270 269 268 267 262 257 255 253 252 251 250 249 247 245 243 241 239 238 237 235 234 234 233 234 238 238 235 234 232 231 232 232 229 227 227 227 222 220 219 219 219 220 220 218 218 218 218 220 218 218 218 215 215 215 214 214 214 215 213 212 210 206 206 208 209 207 204 207 210 206 201 203 206 209 213 214 214 210 206 204 202 203 203 203 204 207
273 271 270 268 269 268 262 257 255 253 252 251 250 249 247 245 242 240 237 235 234 232 232 234 233 234 237 236 233 232 230 228 229 229 227 225 225 223 219 218 219 218 219 220 219 217 215 217 217 218 219 218 217 215 214 214 213 211 213 217 212 210 212 206 204 207 208 208 206 207 212 208 202 204 206 209 213 213 214 209 205 204 203 205 206 204 203 207
273 271 269 268 268 267 262 257 254 253 252 250 250 248 244 243 240 236 233 230 230 230 232 233 231 234 236 233 231 230 227 226 226 226 225 223 222 220 217 218 217 216 217 218 218 216 214 216 217 217 217 217 216 215 215 214 212 210 210 214 212 210 213 207 204 205 205 209 208 205 209 206 201 206 207 210 214 214 212 208 206 205 204 207 208 206 206 207
274 272 270 268 267 265 261 257 254 253 251 249 247 244 240 239 236 233 230 227 227 229 233 230 226 231 233 228 228 229 227 226 225 224 223 220 218 217 217 216 215 215 216 217 217 215 215 215 216 217 216 215 215 214 215 216 213 209 208 212 211 209 211 208 203 203 204 208 207 206 209 209 205 208 209 210 212 213 211 208 208 206 207 209 209 210 209 208
274 272 270 268 266 263 260 256 254 252 249 246 244 240 236 234 233 232 230 229 229 232 236 229 224 230 231 224 226 229 226 224 225 223 220 218 215 214 215 214 214 216 218 217 216 215 215 216 217 217 216 214 213 214 216 217 212 208 208 211 211 209 209 207 203 203 205 208 208 207 209 210 211 210 210 210 210 212 210 209 210 208 210 212 210 211 210 210
274 271 269 267 264 262 258 256 253 249 246 244 241 237 236 235 234 233 231 232 232 233 236 231 226 231 232 227 227 228 225 223 224 221 218 216 213 213 214 213 214 217 218 216 214 214 216 219 218 216 216 213 212 213 214 215 211 209 210 210 210 210 208 206 205 204 206 211 210 207 209 211 213 214 211 212 212 211 213 212 213 213 213 212 211 211 210 212
274 271 268 266 262 260 258 255 251 247 244 241 237 235 237 236 235 236 236 236 234 232 234 233 231 233 232 230 228 227 227 224 222 219 216 214 213 214 213 213 215 216 216 214 213 214 217 221 218 214 215 212 210 212 212 212 212 211 211 210 210 208 205 203 204 205 207 212 211 207 210 212 212 214 212 213 215 215 218 217 216 217 216 213 212 212 212 215
273 271 267 263 260 258 256 253 249 245 242 237 234 234 234 233 234 236 237 238 237 231 229 230 230 230 230 229 227 224 226 224 221 218 214 213 213 214 213 214 216 216 214 214 214 215 218 220 217 213 212 210 209 211 211 212 213 212 210 209 210 207 205 206 205 204 206 212 213 207 211 214 212 214 214 213 217 218 220 217 214 215 215 214 213 213 216 219
273 270 265 260 257 255 253 251 247 242 238 234 233 231 230 231 234 236 235 236 238 231 227 228 227 227 226 225 223 221 223 223 222 218 214 213 213 213 215 214 215 216 216 215 216 217 219 219 214 210 210 209 209 210 210 212 212 213 210 210 210 206 207 209 203 201 204 211 213 206 209 215 213 214 214 213 215 215 215 214 212 211 213 214 212 214 219 222
271 269 263 258 253 251 250 248 244 238 233 232 230 226 225 229 231 234 233 235 236 230 226 225 225 226 223 220 218 218 220 221 221 218 214 213 212 212 214 215 215 217 215 214 215 218 220 215 209 209 210 210 210 209 209 210 211 212 211 211 211 205 206 205 198 201 207 212 212 208 212 214 211 213 213 211 211 209 210 210 209 209 210 212 212 215 221 223
269 267 261 254 249 247 246 243 237 231 229 227 223 219 221 226 228 230 229 232 233 225 220 220 219 219 216 215 214 214 220 221 219 217 213 212 212 211 213 214 215 217 214 212 215 219 217 211 208 210 209 208 210 210 209 209 211 212 210 209 210 206 205 204 201 205 211 213 210 210 216 214 209 213 211 208 205 203 205 205 205 206 208 211 213 217 220 220
266 263 257 250 244 242 240 237 230 226 225 220 216 217 220 224 226 225 223 228 229 220 215 215 214 214 213 211 208 209 218 215 212 214 212 211 210 211 214 212 213 216 212 210 215 218 213 208 209 209 208 208 210 210 208 207 212 212 205 205 209 208 207 206 206 210 213 212 208 210 217 219 212 210 206 203 201 199 202 202 201 203 205 211 215 219 220 219
263 259 251 244 239 237 235 234 229 224 221 215 214 217 219 221 221 217 219 224 221 215 214 212 211 211 211 207 203 207 213 206 207 211 209 208 207 209 213 211 210 212 209 209 214 214 210 209 209 207 208 210 211 210 206 205 211 211 202 203 208 209 210 210 210 213 215 215 212 209 213 218 212 204 201 200 200 200 201 200 199 200 204 210 217 221 222 222
259 254 246 239 235 235 233 231 227 222 218 214 214 215 216 217 213 212 220 223 214 211 212 207 207 209 206 203 203 207 209 206 209 206 202 205 206 208 213 211 210 210 209 212 214 212 212 211 209 208 210 211 210 209 205 204 209 207 201 204 207 209 213 214 213 214 215 217 216 207 206 213 209 198 199 201 202 203 202 200 201 201 204 209 216 221 222 225
254 248 241 235 231 231 229 226 224 219 215 212 211 212 211 209 206 209 215 216 209 208 208 204 205 204 201 201 203 206 207 207 206 199 199 203 204 207 212 210 210 211 209 212 215 214 211 210 210 210 210 210 208 206 203 204 207 204 202 204 206 208 212 214 215 215 213 215 216 206 202 210 209 198 200 203 204 205 203 200 200 202 204 208 215 219 221 224
248 242 235 230 226 223 222 220 216 210 207 207 208 208 205 202 207 211 208 206 204 203 203 202 202 201 200 201 201 202 205 205 201 197 199 201 201 204 207 206 208 208 208 211 213 213 208 207 209 209 209 207 203 202 201 203 206 205 204 204 204 206 209 212 213 213 215 214 211 202 200 210 212 201 202 203 203 204 202 200 200 202 206 209 213 215 218 222
243 237 230 225 221 217 216 212 205 200 201 204 205 203 200 201 209 212 205 202 206 206 204 202 200 200 201 202 201 199 201 203 200 198 199 199 201 204 206 205 205 204 206 207 208 209 208 207 207 206 207 205 202 202 202 204 205 205 204 202 203 203 205 210 211 211 214 210 204 199 198 207 210 199 199 200 199 201 199 198 199 201 204 208 211 214 218 222
238 232 226 222 218 214 214 210 204 203 203 204 203 201 202 206 208 210 206 203 205 208 207 204 203 201 200 203 202 198 200 202 200 199 199 199 201 204 206 207 205 206 207 205 205 206 206 207 206 205 207 206 205 205 203 203 203 204 203 202 203 203 203 208 209 210 212 207 202 199 198 204 205 197 197 197 197 197 195 195 197 198 199 202 208 213 216 221
232 228 223 220 216 213 212 208 206 205 204 203 201 200 205 210 208 208 209 205 204 207 208 207 206 202 200 203 202 197 199 201 199 200 199 199 202 204 205 206 205 207 206 204 206 206 205 207 207 206 206 205 207 207 204 202 203 204 205 204 206 207 206 209 210 211 210 206 202 200 202 207 205 199 198 196 195 195 194 195 196 196 197 200 206 211 216 223
228 225 221 217 215 213 210 207 205 203 201 201 201 201 205 208 206 208 208 206 209 212 212 210 208 203 199 202 202 197 199 202 199 201 202 201 204 204 204 205 204 205 205 204 206 206 208 211 206 205 207 204 205 207 204 201 203 205 206 207 209 209 209 209 212 212 207 202 201 202 205 208 202 198 196 195 194 193 193 194 196 196 198 203 207 212 218 228
223 219 215 213 211 209 206 205 202 200 200 200 202 204 207 207 205 206 207 208 213 217 217 210 205 203 199 199 200 198 201 204 199 201 204 204 205 204 203 205 204 204 205 204 203 204 207 208 201 201 206 205 204 206 204 202 203 203 205 207 208 211 211 206 206 206 203 203 203 203 202 200 199 199 197 195 193 193 194 195 196 199 201 204 208 213 222 232
216 213 211 209 207 203 201 200 197 197 200 203 205 206 208 209 209 208 206 207 210 214 214 205 200 203 201 197 197 197 200 202 199 200 202 203 205 204 203 204 204 204 205 205 205 206 206 206 200 200 204 204 205 205 205 207 206 204 206 205 203 208 211 206 204 204 204 207 207 204 201 199 201 201 198 196 194 194 197 197 198 201 203 205 210 216 225 234
210 208 206 204 201 198 196 195 193 194 199 203 208 209 210 211 211 210 208 207 209 209 205 201 199 201 200 196 195 194 195 198 197 198 199 200 203 203 202 202 202 203 204 205 207 206 205 206 202 202 203 201 202 203 204 207 209 209 208 205 203 206 206 204 205 205 205 208 205 203 203 203 205 202 198 198 197 196 197 199 201 202 203 206 212 219 228 236
203 200 198 196 194 193 192 189 190 194 199 202 206 209 212 213 210 209 209 208 210 205 198 198 199 201 199 195 194 193 194 196 196 196 197 198 198 201 202 201 200 201 202 204 205 204 204 207 203 200 200 197 199 203 203 203 206 208 207 205 206 208 206 205 208 207 206 207 203 202 206 207 207 204 200 199 198 197 199 201 203 204 206 210 216 224 232 238
196 194 192 190 190 189 186 186 190 195 198 201 205 208 210 210 208 209 210 208 206 200 194 195 199 201 199 195 194 194 194 195 196 197 199 198 196 200 202 201 199 198 199 202 204 202 202 206 202 195 195 197 200 203 203 201 202 204 205 203 203 205 206 205 208 210 209 210 206 204 206 206 205 205 201 199 199 200 201 202 203 204 208 213 219 226 232 236
191 191 189 187 187 184 182 187 192 194 196 200 206 209 207 205 204 204 203 201 198 192 191 196 202 205 204 199 195 192 193 196 196 199 201 199 198 200 200 199 198 196 196 199 202 200 199 201 199 194 195 199 201 201 203 204 203 203 204 203 201 201 202 203 205 208 211 213 209 206 205 204 206 207 202 200 201 201 200 201 202 204 208 213 219 224 228 232
189 188 186 185 184 181 184 190 192 193 196 200 204 206 204 201 201 197 192 191 191 191 192 197 204 206 204 201 198 194 194 195 196 198 199 198 200 200 198 198 197 195 195 197 198 196 196 199 198 195 195 198 199 199 203 205 203 202 204 204 201 201 203 204 205 205 208 211 208 207 209 207 209 208 201 199 201 200 199 199 200 205 209 212 217 222 227 232
185 183 181 181 180 182 187 189 189 192 196 198 201 201 197 194 192 190 187 187 189 193 194 196 202 203 200 200 200 199 197 195 195 197 196 196 199 198 196 195 196 194 194 196 195 191 192 196 195 192 193 194 194 197 201 203 201 201 202 202 202 202 204 208 208 205 207 208 205 207 210 207 206 205 200 198 199 200 201 199 199 206 210 212 216 222 227 233
182 179 177 178 179 183 186 184 184 190 193 193 194 192 188 186 187 187 188 188 191 196 196 197 199 200 200 202 202 202 198 193 193 194 191 192 193 190 191 193 194 193 193 194 192 189 191 194 191 188 188 189 191 193 196 199 200 200 200 199 201 202 203 206 208 205 207 208 207 211 213 207 204 202 199 197 198 200 201 200 202 206 209 213 218 222 227 232
179 175 173 177 180 183 184 182 182 187 187 186 186 185 183 183 184 187 191 193 197 199 197 197 201 201 203 203 201 201 198 192 189 187 184 186 186 185 188 192 193 193 191 191 189 187 190 192 189 190 190 190 191 192 193 194 195 198 197 196 198 199 199 201 204 206 208 207 209 216 212 201 199 200 199 199 198 200 201 202 205 207 209 213 217 221 226 231
175 173 171 173 177 181 183 182 183 183 180 179 179 181 183 183 181 185 191 195 198 200 200 203 204 203 203 200 197 195 192 188 185 183 182 182 182 184 186 189 192 191 185 185 187 187 188 189 187 189 192 192 192 191 191 190 191 193 194 193 196 197 197 199 203 208 207 204 209 213 203 195 198 199 200 201 200 201 203 203 204 207 209 212 215 219 224 229
170 169 169 169 172 178 181 181 181 178 175 175 175 176 181 182 179 180 184 187 192 195 201 205 201 196 194 191 189 186 184 184 183 182 183 182 180 183 184 185 187 185 180 183 187 188 189 189 186 184 185 187 187 187 187 187 187 189 190 191 193 195 197 200 205 207 202 203 209 206 198 198 200 198 199 200 200 201 203 202 203 205 207 210 212 215 218 224
166 164 167 169 170 173 177 177 176 175 173 175 175 173 174 176 178 179 177 181 191 193 194 197 196 195 194 189 185 182 181 182 181 181 182 181 181 181 180 181 182 181 182 185 188 190 190 188 187 184 180 181 183 184 184 183 182 184 185 187 191 194 198 201 204 203 201 207 209 200 197 200 197 196 198 198 198 199 199 199 201 202 204 207 209 212 216 223
166 163 166 169 169 169 171 170 171 173 174 174 174 171 170 170 173 177 173 173 185 188 187 193 195 193 193 191 188 183 181 179 179 179 180 180 181 181 177 177 179 180 184 185 186 190 190 186 186 184 179 178 181 182 181 181 181 181 183 186 189 193 197 199 201 203 203 207 202 190 189 194 195 195 196 195 195 196 197 199 199 199 202 205 208 211 216 222
165 164 164 168 169 168 168 167 169 171 171 171 171 169 167 166 167 172 172 168 173 177 184 194 190 184 186 190 189 184 182 179 176 177 177 176 178 179 175 175 177 178 182 184 185 190 190 187 186 185 180 179 181 181 181 181 180 180 183 188 191 193 195 197 200 204 206 202 193 185 186 195 202 198 190 190 191 192 195 197 197 199 203 205 207 210 214 218
166 166 164 167 167 165 167 167 168 169 168 169 169 165 164 165 164 168 170 165 168 172 168 167 169 172 176 179 177 176 176 174 170 169 172 173 174 175 174 173 175 177 179 181 184 189 189 186 187 188 184 180 182 181 179 179 179 179 184 190 195 196 197 198 201 207 211 201 191 193 199 203 206 198 189 190 190 189 194 196 197 202 205 206 208 209 211 215
164 165 165 167 165 162 165 166 166 168 168 168 168 167 167 166 163 165 166 160 157 157 142 137 151 160 162 161 163 166 165 161 158 159 163 162 159 162 166 168 173 176 178 180 183 187 186 185 187 189 184 180 183 182 180 181 183 186 190 196 200 199 198 200 202 209 218 209 201 206 209 204 203 199 194 193 191 192 197 199 199 203 207 208 209 209 209 212